TimeEST,TemperatureF,Dew PointF,Humidity,Sea Level PressureIn,VisibilityMPH,Wind Direction,Wind SpeedMPH,Gust SpeedMPH,PrecipitationIn,Events,Conditions,WindDirDegrees,DateUTC
12:56 AM,43.0,30.0,60,30.10,10.0,WSW,12.7,-,N/A,,Clear,250,2013-01-24 05:56:00
1:56 AM,43.0,33.1,68,30.09,10.0,WSW,11.5,-,N/A,,Clear,240,2013-01-24 06:56:00
2:56 AM,44.1,35.1,71,30.07,10.0,WSW,9.2,-,N/A,,Clear,250,2013-01-24 07:56:00
3:56 AM,46.0,37.0,71,30.06,10.0,West,11.5,-,N/A,,Clear,260,2013-01-24 08:56:00
4:56 AM,46.0,37.0,71,30.05,10.0,West,12.7,-,N/A,,Clear,260,2013-01-24 09:56:00
5:56 AM,46.9,37.9,71,30.06,10.0,West,12.7,-,N/A,,Clear,260,2013-01-24 10:56:00
6:56 AM,46.9,37.0,68,30.08,10.0,West,10.4,-,N/A,,Clear,270,2013-01-24 11:56:00
7:56 AM,46.9,34.0,61,30.09,10.0,West,12.7,-,N/A,,Clear,270,2013-01-24 12:56:00
8:56 AM,50.0,33.1,52,30.12,10.0,West,11.5,-,N/A,,Clear,270,2013-01-24 13:56:00
9:56 AM,52.0,30.9,45,30.15,10.0,WSW,16.1,20.7,N/A,,Clear,240,2013-01-24 14:56:00
10:56 AM,53.1,28.0,38,30.17,10.0,West,12.7,-,N/A,,Clear,260,2013-01-24 15:56:00
11:56 AM,57.0,24.1,28,30.18,10.0,WNW,6.9,-,N/A,,Clear,300,2013-01-24 16:56:00
12:56 PM,57.9,21.9,25,30.17,10.0,NW,5.8,-,N/A,,Clear,310,2013-01-24 17:56:00
1:56 PM,57.9,18.0,21,30.18,10.0,West,10.4,-,N/A,,Clear,260,2013-01-24 18:56:00
2:56 PM,57.0,12.0,17,30.19,10.0,Variable,3.5,-,N/A,,Clear,0,2013-01-24 19:56:00
3:56 PM,54.0,18.0,24,30.21,10.0,NE,12.7,-,N/A,,Clear,50,2013-01-24 20:56:00
4:56 PM,51.1,16.0,25,30.25,10.0,East,13.8,-,N/A,,Clear,90,2013-01-24 21:56:00
5:56 PM,46.9,14.0,27,30.29,10.0,East,11.5,-,N/A,,Clear,80,2013-01-24 22:56:00
6:56 PM,43.0,5.0,21,30.32,10.0,ENE,8.1,-,N/A,,Clear,60,2013-01-24 23:56:00
7:56 PM,42.1,10.0,27,30.35,10.0,ENE,21.9,26.5,N/A,,Clear,70,2013-01-25 00:56:00
8:56 PM,37.9,10.9,33,30.39,10.0,ENE,18.4,-,N/A,,Clear,70,2013-01-25 01:56:00
9:56 PM,34.0,9.0,35,30.43,10.0,ENE,15.0,20.7,N/A,,Clear,70,2013-01-25 02:56:00
10:56 PM,32.0,7.0,35,30.45,10.0,ENE,12.7,23.0,N/A,,Clear,70,2013-01-25 03:56:00
11:56 PM,30.9,8.1,38,30.46,10.0,ENE,9.2,-,N/A,,Clear,60,2013-01-25 04:56:00